CW5210 Weather Reports


Display with metric or nautical units.
time (UTC)temp
F
wind
direction
speed
MPH
gust
MPH
rain 1hr
in
rain 24hr
in
rain mn
in
humidity
%
barometer
mb
20260508201536 77 224 0.0 6.0 0.00 0.00 0.00 24 1016.5
20260508200040 75 349 1.0 8.0 0.00 0.00 0.00 25 1016.6
20260508194537 75 305 1.0 7.0 0.00 0.00 0.00 22 1016.6
20260508193035 75 324 1.0 7.0 0.00 0.00 0.00 21 1016.7
20260508191534 75 311 1.0 8.0 0.00 0.00 0.00 25 1016.8
20260508190032 74 306 0.0 7.0 0.00 0.00 0.00 26 1016.8
20260508184533 74 0 0.0 5.0 0.00 0.00 0.00 26 1017.0
20260508183034 74 257 0.0 7.0 0.00 0.00 0.00 32 1017.1
20260508181544 72 350 1.0 7.0 0.00 0.00 0.00 26 1017.1
20260508180036 71 0 0.0 5.0 0.00 0.00 0.00 32 1017.2
20260508174532 71 207 0.0 7.0 0.00 0.00 0.00 36 1017.4
20260508173032 70 217 1.0 4.0 0.00 0.00 0.00 35 1017.4
20260508171531 69 196 0.0 3.0 0.00 0.00 0.00 40 1017.3
20260508170031 68 194 1.0 3.0 0.00 0.00 0.00 40 1017.4
20260508164539 68 0 0.0 3.0 0.00 0.00 0.00 39 1017.2
20260508163034 65 0 0.0 3.0 0.00 0.00 0.00 41 1017.1
20260508161532 64 65 0.0 2.0 0.00 0.00 0.00 43 1017.1
20260508160034 64 65 0.0 2.0 0.00 0.00 0.00 44 1017.0
20260508154558 63 0 0.0 2.0 0.00 0.00 0.00 44 1017.1
20260508153035 62 66 1.0 4.0 0.00 0.00 0.00 43 1016.9
20260508151538 61 68 0.0 3.0 0.00 0.00 0.00 48 1016.7
20260508150037 60 67 0.0 3.0 0.00 0.00 0.00 50 1016.7
20260508144533 59 0 0.0 1.0 0.00 0.00 0.00 51 1016.5
20260508143035 56 0 0.0 2.0 0.00 0.00 0.00 52 1016.4
20260508141536 54 0 0.0 1.0 0.00 0.00 0.00 59 1016.3
20260508140038 51 0 0.0 1.0 0.00 0.00 0.00 67 1016.3
20260508134548 49 0 0.0 0.0 0.00 0.00 0.00 69 1016.2
20260508133047 47 0 0.0 0.0 0.00 0.00 0.00 70 1016.0
20260508131534 46 0 0.0 0.0 0.00 0.00 0.00 68 1015.8
20260508130037 46 0 0.0 0.0 0.00 0.00 0.00 67 1015.6
20260508124537 46 0 0.0 0.0 0.00 0.00 0.00 67 1015.4
20260508123045 46 0 0.0 2.0 0.00 0.00 0.00 67 1015.3
20260508121534 46 0 0.0 0.0 0.00 0.00 0.00 65 1015.2
20260508120038 47 0 0.0 0.0 0.00 0.00 0.00 65 1014.9
20260508114536 47 0 0.0 1.0 0.00 0.00 0.00 65 1014.9
20260508113037 47 0 0.0 3.0 0.00 0.00 0.00 65 1014.8
20260508111538 47 0 0.0 1.0 0.00 0.00 0.00 65 1014.8
20260508110033 47 0 0.0 2.0 0.00 0.00 0.00 65 1014.8
20260508104532 47 0 0.0 1.0 0.00 0.00 0.00 66 1014.7
20260508103033 47 0 0.0 1.0 0.00 0.00 0.00 65 1014.8
20260508101536 48 0 0.0 2.0 0.00 0.00 0.00 65 1014.7
20260508100032 48 0 0.0 0.0 0.00 0.00 0.00 64 1014.7
20260508094538 48 0 0.0 1.0 0.00 0.00 0.00 64 1014.8
20260508093032 49 0 0.0 0.0 0.00 0.00 0.00 64 1014.6
20260508091532 49 0 0.0 3.0 0.00 0.00 0.00 64 1014.5
20260508090045 49 66 0.0 2.0 0.00 0.00 0.00 63 1014.5
20260508084541 49 0 0.0 0.0 0.00 0.00 0.00 63 1014.4
20260508083035 50 0 0.0 0.0 0.00 0.00 0.00 62 1014.5
20260508081545 50 0 0.0 1.0 0.00 0.00 0.00 62 1014.4
20260508080036 50 0 0.0 0.0 0.00 0.00 0.00 61 1014.5
20260508074532 51 66 0.0 1.0 0.00 0.00 0.00 60 1014.6
20260508073035 51 0 0.0 0.0 0.00 0.00 0.00 58 1014.5
20260508071536 52 0 0.0 0.0 0.00 0.00 0.00 57 1014.5
20260508070035 53 0 0.0 0.0 0.00 0.00 0.00 55 1014.4
20260508064536 53 0 0.0 1.0 0.00 0.00 0.00 55 1014.3
20260508063037 54 0 0.0 0.0 0.00 0.00 0.00 54 1014.2
20260508061537 55 0 0.0 0.0 0.00 0.00 0.00 53 1014.2
20260508060033 55 0 0.0 1.0 0.00 0.00 0.00 52 1014.0
20260508054537 56 0 0.0 1.0 0.00 0.00 0.00 50 1014.0
20260508053034 58 0 0.0 0.0 0.00 0.00 0.00 48 1014.0
20260508051540 60 0 0.0 0.0 0.00 0.00 0.00 41 1013.7
20260508050033 61 0 0.0 0.0 0.00 0.00 0.00 37 1013.7
20260508044532 62 0 0.0 0.0 0.00 0.00 0.00 36 1013.5
20260508043035 62 0 0.0 6.0 0.00 0.00 0.00 35 1013.7
20260508041534 62 90 1.0 4.0 0.00 0.00 0.00 36 1013.6
20260508040045 62 89 2.0 6.0 0.00 0.00 0.00 37 1013.5
20260508034545 63 77 1.0 4.0 0.00 0.00 0.00 37 1013.5
20260508033037 64 0 0.0 3.0 0.00 0.00 0.00 37 1013.4
20260508031535 65 335 0.0 2.0 0.00 0.00 0.00 37 1013.4
20260508030032 67 0 0.0 1.0 0.00 0.00 0.00 33 1013.2
20260508024558 69 0 0.0 0.0 0.00 0.00 0.00 30 1013.1
20260508023033 70 0 0.0 0.0 0.00 0.00 0.00 29 1013.2
20260508021534 72 0 0.0 0.0 0.00 0.00 0.00 28 1013.0
20260508020038 73 0 0.0 1.0 0.00 0.00 0.00 26 1012.9
20260508014536 73 0 0.0 3.0 0.00 0.00 0.00 24 1013.0
20260508013037 74 0 0.0 1.0 0.00 0.00 0.00 24 1013.1
20260508011536 75 336 0.0 3.0 0.00 0.00 0.00 24 1013.2
20260508010042 75 0 0.0 1.0 0.00 0.00 0.00 25 1013.2
20260508004544 74 0 0.0 2.0 0.00 0.00 0.00 24 1013.2
20260508003030 74 0 0.0 3.0 0.00 0.00 0.00 26 1013.1
20260508001541 75 0 0.0 6.0 0.00 0.00 0.00 23 1013.4
20260508000030 75 50 1.0 5.0 0.00 0.00 0.00 23 1013.5
20260507234535 75 16 1.0 5.0 0.00 0.00 0.00 24 1013.7
20260507233034 75 216 0.0 4.0 0.00 0.00 0.00 25 1013.8
20260507231535 76 0 1.0 4.0 0.00 0.00 0.00 24 1014.0
20260507230032 75 0 0.0 3.0 0.00 0.00 0.00 26 1014.2
20260507224530 74 344 1.0 4.0 0.00 0.00 0.00 24 1014.4
20260507223035 72 320 0.0 4.0 0.00 0.00 0.00 26 1014.7
20260507221539 72 352 1.0 5.0 0.00 0.00 0.00 26 1014.9
20260507220033 74 0 1.0 6.0 0.00 0.00 0.00 26 1015.1
20260507214537 75 233 0.0 6.0 0.00 0.00 0.00 25 1015.1
20260507213034 74 325 2.0 13.0 0.00 0.00 0.00 25 1015.3
20260507211534 74 352 1.0 9.0 0.00 0.00 0.00 24 1015.4
20260507210038 75 273 0.0 9.0 0.00 0.00 0.00 24 1015.7
20260507204535 75 252 1.0 4.0 0.00 0.00 0.00 24 1015.8
20260507203051 74 336 2.0 5.0 0.00 0.00 0.00 23 1016.1